Date String (YYYY-MM-DD hh:mm:ss) UTC,Instrument flags,Ambient pressure (hPa),Sample flow (lpm),Bypass flow (lpm),Sample temperature (°C),Ambient temperature (°C),ASC tube jacket temperature (°C),LED temperature (°C),Box temperature (°C),Sample RH (%),Span deviation,Mass concentration (μg/m³),Mass concentration (μg/m³),Mass concentration (μg/m³)
DateTimeUTC,F1_M11,P_M11,Q1_M11,Q2_M11,T1_M11,T2_M11,T3_M11,T4_M11,T5_M11,U1_M11,ZSPAN_M11,X2_M11,X0_M11,X1_M11
2023-04-04 12:00:00,,0813.7,4.99,0.00,23.5,23.7,00.0,31.7,25.2,12.8,0000.0,0001.16,0003.96,0000.99
2023-04-04 12:01:00,,0813.7,5.00,0.00,23.5,23.3,00.0,31.7,25.1,12.8,0000.0,0001.15,0003.54,0000.98
2023-04-04 12:02:00,,0813.7,4.99,0.00,23.4,22.8,00.0,31.7,24.9,12.8,0000.0,0001.17,0003.37,0000.99
2023-04-04 12:03:00,,0813.8,5.00,0.00,23.3,22.4,00.0,31.7,24.8,12.9,0000.0,0001.21,0003.45,0001.00
2023-04-04 12:04:00,,0813.7,5.01,0.00,23.3,22.1,00.0,31.7,24.7,12.9,0000.0,0001.20,0003.41,0001.01
2023-04-04 12:05:00,,0813.7,5.00,0.00,23.2,21.8,00.0,31.7,24.6,12.9,0000.0,0001.21,0003.37,0001.03
2023-04-04 12:06:00,,0813.5,5.00,0.00,23.2,21.5,00.0,31.7,24.5,13.0,0000.0,0001.21,0003.36,0001.04
2023-04-04 12:07:00,,0813.5,4.98,0.00,23.1,21.4,00.0,31.7,24.4,13.0,0000.0,0001.24,0002.97,0001.07
2023-04-04 12:08:00,,0813.5,5.01,0.00,23.2,21.9,00.0,31.6,24.8,13.0,0000.0,0001.28,0002.93,0001.08
2023-04-04 12:09:00,,0813.6,5.01,0.00,23.3,22.9,00.0,31.5,25.2,12.9,0000.0,0001.32,0003.02,0001.10
2023-04-04 12:10:00,,0813.7,4.98,0.00,23.4,23.6,00.0,31.6,25.4,12.8,0000.0,0001.36,0002.81,0001.13
2023-04-04 12:11:00,,0813.7,5.02,0.00,23.4,23.4,00.0,31.6,25.1,12.8,0000.0,0001.38,0001.86,0001.15
2023-04-04 12:12:00,,0813.6,5.00,0.00,23.4,22.9,00.0,31.7,25.0,12.8,0000.0,0001.39,0001.85,0001.17
2023-04-04 12:13:00,,0813.6,4.99,0.00,23.3,22.5,00.0,31.7,24.8,12.8,0000.0,0001.39,0001.84,0001.18
2023-04-04 12:14:00,,0813.6,5.00,0.00,23.3,22.1,00.0,31.7,24.7,12.8,0000.0,0001.39,0002.40,0001.19
2023-04-04 12:15:00,,0813.6,5.00,0.00,23.2,21.8,00.0,31.7,24.6,12.9,0000.0,0001.44,0002.96,0001.20
2023-04-04 12:16:00,,0813.6,5.00,0.00,23.2,21.5,00.0,31.7,24.5,12.9,0000.0,0001.47,0003.05,0001.21
2023-04-04 12:17:00,,0813.5,5.00,0.00,23.1,21.3,00.0,31.6,24.4,13.0,0000.0,0001.51,0003.21,0001.21
2023-04-04 12:18:00,,0813.8,4.99,0.00,23.0,21.1,00.0,31.6,24.4,13.0,0000.0,0001.49,0003.17,0001.20
2023-04-04 12:19:00,,0813.7,5.00,0.00,23.0,21.1,00.0,31.6,24.4,13.1,0000.0,0001.48,0003.12,0001.20
2023-04-04 12:20:00,,0813.9,5.01,0.00,23.1,22.0,00.0,31.5,24.8,13.0,0000.0,0001.46,0003.05,0001.21
2023-04-04 12:21:00,,0814.0,5.01,0.00,23.2,23.0,00.0,31.5,25.1,12.9,0000.0,0001.43,0002.90,0001.21
2023-04-04 12:22:00,,0814.0,4.99,0.00,23.3,23.5,00.0,31.5,25.1,12.9,0000.0,0001.43,0002.86,0001.22
2023-04-04 12:23:00,,0813.9,4.99,0.00,23.3,23.2,00.0,31.6,24.9,12.8,0000.0,0001.43,0002.88,0001.22
2023-04-04 12:24:00,,0813.9,5.00,0.00,23.2,22.8,00.0,31.6,24.8,12.9,0000.0,0001.45,0002.94,0001.22
2023-04-04 12:25:00,,0814.0,5.00,0.00,23.2,22.4,00.0,31.6,24.7,12.9,0000.0,0001.50,0002.50,0001.24
2023-04-04 12:26:00,,0814.0,4.99,0.00,23.2,22.0,00.0,31.6,24.6,13.0,0000.0,0001.52,0002.12,0001.25
2023-04-04 12:27:00,,0813.9,4.99,0.00,23.1,21.7,00.0,31.6,24.6,13.0,0000.0,0001.53,0002.10,0001.27
2023-04-04 12:28:00,,0813.9,5.00,0.00,23.1,21.5,00.0,31.6,24.5,13.1,0000.0,0001.51,0002.05,0001.26
2023-04-04 12:29:00,,0813.9,5.00,0.00,23.0,21.3,00.0,31.5,24.4,13.1,0000.0,0001.54,0002.19,0001.28
2023-04-04 12:30:00,,0813.9,5.00,0.00,23.0,21.2,00.0,31.5,24.4,13.2,0000.0,0001.57,0002.86,0001.29
2023-04-04 12:31:00,,0813.9,5.00,0.00,23.0,21.9,00.0,31.4,24.7,13.1,0000.0,0001.60,0003.00,0001.30
2023-04-04 12:32:00,,0813.9,5.01,0.00,23.2,22.9,00.0,31.4,25.1,13.0,0000.0,0001.59,0003.00,0001.30
2023-04-04 12:33:00,,0814.0,5.00,0.00,23.3,23.5,00.0,31.4,25.2,13.0,0000.0,0001.59,0003.03,0001.29
2023-04-04 12:34:00,,0813.9,4.99,0.00,23.3,23.2,00.0,31.5,25.0,12.9,0000.0,0001.61,0003.15,0001.29
2023-04-04 12:35:00,,0813.9,5.00,0.00,23.2,22.8,00.0,31.6,24.8,13.0,0000.0,0001.60,0003.09,0001.29
2023-04-04 12:36:00,,0813.9,5.00,0.00,23.2,22.4,00.0,31.6,24.7,13.0,0000.0,0001.55,0002.94,0001.27
2023-04-04 12:37:00,,0813.9,5.01,0.00,23.1,22.0,00.0,31.6,24.5,13.0,0000.0,0001.53,0003.07,0001.27
2023-04-04 12:38:00,,0813.9,5.00,0.00,23.1,21.7,00.0,31.5,24.5,13.1,0000.0,0001.52,0003.27,0001.26
2023-04-04 12:39:00,,0814.0,5.01,0.00,23.0,21.4,00.0,31.5,24.4,13.1,0000.0,0001.50,0003.22,0001.25
2023-04-04 12:40:00,,0814.0,5.00,0.00,23.0,21.2,00.0,31.5,24.3,13.1,0000.0,0001.45,0003.09,0001.24
2023-04-04 12:41:00,,0814.1,4.99,0.00,22.9,21.0,00.0,31.5,24.3,13.2,0000.0,0001.41,0002.46,0001.22
2023-04-04 12:42:00,,0814.1,5.00,0.00,22.9,20.8,00.0,31.4,24.2,13.2,0000.0,0001.37,0002.26,0001.20
2023-04-04 12:43:00,,0814.1,5.01,0.00,22.8,20.9,00.0,31.4,24.3,13.3,0000.0,0001.36,0002.24,0001.19
2023-04-04 12:44:00,,0814.0,4.98,0.00,22.9,21.8,00.0,31.3,24.7,13.2,0000.0,0001.34,0002.22,0001.17
2023-04-04 12:45:00,,0814.0,5.00,0.00,23.1,22.8,00.0,31.3,25.0,13.1,0000.0,0001.33,0002.14,0001.16
2023-04-04 12:46:00,,0813.9,5.00,0.00,23.2,23.3,00.0,31.3,25.0,13.0,0000.0,0001.33,0002.14,0001.14
2023-04-04 12:47:00,,0813.9,5.00,0.00,23.2,23.0,00.0,31.4,24.8,13.0,0000.0,0001.32,0002.12,0001.13
2023-04-04 12:48:00,,0813.9,5.01,0.00,23.1,22.6,00.0,31.4,24.7,13.1,0000.0,0001.28,0001.87,0001.12
2023-04-04 12:49:00,,0814.0,5.01,0.00,23.1,22.1,00.0,31.4,24.5,13.1,0000.0,0001.26,0001.62,0001.11
2023-04-04 12:50:00,,0814.0,5.00,0.00,23.0,21.8,00.0,31.4,24.4,13.1,0000.0,0001.26,0001.57,0001.12
2023-04-04 12:51:00,,0813.9,4.99,0.00,22.9,21.4,00.0,31.4,24.3,13.2,0000.0,0001.26,0001.57,0001.11
2023-04-04 12:52:00,,0813.9,4.99,0.00,22.9,21.2,00.0,31.4,24.3,13.2,0000.0,0001.26,0001.56,0001.11
2023-04-04 12:53:00,,0814.0,5.01,0.00,22.8,21.0,00.0,31.4,24.2,13.3,0000.0,0001.27,0001.96,0001.11
2023-04-04 12:54:00,,0814.1,5.01,0.00,22.8,20.8,00.0,31.4,24.1,13.3,0000.0,0001.30,0002.02,0001.11
2023-04-04 12:55:00,,0814.2,5.00,0.00,22.8,20.6,00.0,31.3,24.1,13.3,0000.0,0001.35,0002.13,0001.13
2023-04-04 12:56:00,,0814.2,5.00,0.00,22.7,20.8,00.0,31.3,24.2,13.3,0000.0,0001.34,0002.08,0001.14
2023-04-04 12:57:00,,0814.2,5.00,0.00,22.9,21.9,00.0,31.2,24.6,13.3,0000.0,0001.32,0002.05,0001.14
2023-04-04 12:58:00,,0814.1,5.00,0.00,23.0,22.9,00.0,31.2,24.9,13.2,0000.0,0001.34,0002.06,0001.15
2023-04-04 12:59:00,,0814.1,4.99,0.00,23.1,23.1,00.0,31.3,24.9,13.1,0000.0,0001.39,0002.23,0001.15
